Taunton, MA

8:54 AM EDT on September 26, 2017 (GMT -0400)
Taunton Municipal

Weather History for KTAN - August, 2014

Change the Weather History Date:

Thursday, August 28, 2014

  Actual Average Record
Temperature  
Mean Temperature 70 °F -  
Max Temperature 84 °F 81 °F 95 °F (1948)
Min Temperature 57 °F 59 °F 40 °F (1986)
Cooling Degree Days 4    
Growing Degree Days 20 (Base 50)    
Moisture  
Dew Point 56 °F    
Average Humidity 63    
Maximum Humidity 96    
Minimum Humidity 35    
Precipitation  
Precipitation 0.00 in - - ()
Sea Level Pressure  
Sea Level Pressure 29.83 in    
Wind  
Wind Speed 3 mph (NW)    
Max Wind Speed 12 mph    
Max Gust Speed 18 mph    
Visibility 9 miles    
Events      
Averages and records for this station are not official NWS values.
T = Trace of Precipitation, MM = Missing Value Source: NWS Daily Summary

Daily Weather History Graph

Daily Weather History Graph

Search for Another Location

Airport or City:

Trip Planner

Search our weather history database for the weather conditions in past years. The results will help you decide how hot, cold, wet, or windy it might be!

Date:

Astronomy

Aug. 28, 2014 Rise Set
Actual Time 6:05 AM EDT 7:24 PM EDT
Civil Twilight 5:36 AM EDT 7:53 PM EDT
Nautical Twilight 5:01 AM EDT 8:27 PM EDT
Astronomical Twilight 4:25 AM EDT 9:04 PM EDT
Moon 8:58 AM EDT (8/28) 8:42 PM EDT (8/28)
Length of Visible Light 14h 16m
Length of Day
13h 18m
Waxing Crescent, 8% of the Moon is Illuminated
Aug 28
Waxing Crescent
Sep 2
First Quarter
Sep 8
Full
Sep 15
Last Quarter
Sep 24
New

Hourly Weather History & Observations

Time (EDT) Temp. Heat Index Dew Point Humidity Pressure Visibility Wind Dir Wind Speed Gust Speed Precip Events Conditions
12:52 AM 70.0 °F - 63.0 °F 78% 29.83 in 10.0 mi Calm Calm - N/A   Mostly Cloudy
1:52 AM 71.1 °F - 63.0 °F 75% 29.81 in 10.0 mi Calm Calm - N/A   Mostly Cloudy
2:52 AM 70.0 °F - 64.0 °F 81% 29.80 in 10.0 mi Calm Calm - N/A   Mostly Cloudy
3:52 AM 66.0 °F - 63.0 °F 90% 29.78 in 10.0 mi Calm Calm - N/A   Clear
4:52 AM 62.1 °F - 61.0 °F 96% 29.79 in 4.0 mi Calm Calm - N/A   Partly Cloudy
5:01 AM 62.1 °F - 60.1 °F 93% 29.79 in 2.0 mi Calm Calm - N/A   Partly Cloudy
5:22 AM 63.0 °F - 61.0 °F 93% 29.79 in 7.0 mi WNW 3.5 mph - N/A   Clear
5:52 AM 66.0 °F - 64.0 °F 93% 29.80 in 8.0 mi NW 3.5 mph - N/A   Clear
6:52 AM 68.0 °F - 63.0 °F 84% 29.80 in 10.0 mi Variable 3.5 mph - N/A   Overcast
7:52 AM 72.0 °F - 60.1 °F 66% 29.81 in 10.0 mi NNW 9.2 mph - N/A   Overcast
8:52 AM 73.9 °F - 59.0 °F 59% 29.81 in 10.0 mi NNW 9.2 mph - N/A   Overcast
9:52 AM 77.0 °F - 57.9 °F 52% 29.81 in 10.0 mi NNW 8.1 mph - N/A   Mostly Cloudy
11:52 AM 81.0 °F 80.5 °F 54.0 °F 39% 29.79 in 10.0 mi North 8.1 mph 18.4 mph N/A   Clear
12:52 PM 82.9 °F 81.8 °F 53.1 °F 36% 29.78 in 10.0 mi WNW 10.4 mph 16.1 mph N/A   Partly Cloudy
1:52 PM 79.0 °F - 53.1 °F 40% 29.79 in 10.0 mi NW 11.5 mph 18.4 mph N/A   Mostly Cloudy
2:52 PM 81.0 °F - 52.0 °F 36% 29.79 in 10.0 mi NW 8.1 mph 18.4 mph N/A   Mostly Cloudy
3:52 PM 82.0 °F - 52.0 °F 35% 29.80 in 10.0 mi Variable 6.9 mph - N/A   Mostly Cloudy
4:52 PM 77.0 °F - 50.0 °F 39% 29.82 in 10.0 mi NW 8.1 mph - N/A   Overcast
5:52 PM 75.9 °F - 51.1 °F 42% 29.84 in 10.0 mi NNW 6.9 mph - N/A   Scattered Clouds
6:52 PM 73.9 °F - 51.1 °F 45% 29.86 in 10.0 mi NNW 3.5 mph - N/A   Mostly Cloudy
7:52 PM 70.0 °F - 50.0 °F 49% 29.89 in 10.0 mi NNW 6.9 mph - N/A   Clear
8:52 PM 66.9 °F - 48.9 °F 52% 29.93 in 10.0 mi NW 3.5 mph - N/A   Clear
9:52 PM 57.9 °F - 50.0 °F 75% 29.95 in 10.0 mi WNW 3.5 mph - N/A   Clear
10:52 PM 59.0 °F - 50.0 °F 72% 29.97 in 10.0 mi WNW 4.6 mph - N/A   Clear
11:52 PM 60.1 °F - 48.0 °F 64% 29.99 in 10.0 mi NW 3.5 mph - N/A   Clear